Date String (YYYY-MM-DD hh:mm:ss) UTC,Instrument flags,absolute air pressure of the measurement (hPa),sample flow rate (lpm),inlet stack bypass flow (lpm),air temperature of the measurement (°C),ambient temperature measured by the external sensor (°C),aerosol sample conditioner tube jacket temperature (°C),OPC LED temperature (°C),internal box temperature (°C),relative humidity of the measurement (%),span deviation,mass concentration of particles derived from Lorenz-Mie calculation of OPC scattering (μg/m³),mass concentration of particles derived from Lorenz-Mie calculation of OPC scattering (μg/m³),mass concentration of particles derived from Lorenz-Mie calculation of OPC scattering (μg/m³)
DateTimeUTC,F1_M11,P_M11,Q1_M11,Q2_M11,T1_M11,T2_M11,T3_M11,T4_M11,T5_M11,U1_M11,ZSPAN_M11,X2_M11,X0_M11,X1_M11
2023-09-24 19:00:00,SystemResetWarning,0832.8,5.00,000.00,028.2,026.8,000.0,036.5,029.8,12.1,0000.0,0003.49,0008.65,0003.08
2023-09-24 19:01:00,SystemResetWarning,0832.8,5.01,000.00,028.2,027.0,000.0,036.5,029.9,11.9,0000.0,0003.50,0008.66,0003.08
2023-09-24 19:02:00,SystemResetWarning,0832.7,5.01,000.00,028.2,027.1,000.0,036.5,029.9,11.8,0000.0,0003.49,0008.63,0003.06
2023-09-24 19:03:00,SystemResetWarning,0832.7,5.00,000.00,028.3,027.2,000.0,036.5,030.0,12.0,0000.0,0003.49,0008.41,0003.06
2023-09-24 19:04:00,SystemResetWarning,0832.7,4.99,000.00,028.3,027.4,000.0,036.6,030.1,12.2,0000.0,0003.49,0008.31,0003.07
2023-09-24 19:05:00,SystemResetWarning,0832.7,5.00,000.00,028.4,027.4,000.0,036.6,030.1,12.5,0000.0,0003.50,0008.28,0003.07
2023-09-24 19:06:00,SystemResetWarning,0832.7,4.99,000.00,028.4,026.1,000.0,036.5,029.9,12.2,0000.0,0003.48,0007.49,0003.06
2023-09-24 19:07:00,SystemResetWarning,0832.7,5.01,000.00,028.3,024.4,000.0,036.4,029.6,12.6,0000.0,0003.48,0007.44,0003.06
2023-09-24 19:08:00,SystemResetWarning,0832.6,5.01,000.00,028.2,024.2,000.0,036.4,029.5,12.5,0000.0,0003.51,0007.57,0003.06
2023-09-24 19:09:00,SystemResetWarning,0832.7,5.00,000.00,028.1,024.5,000.0,036.4,029.3,12.7,0000.0,0003.51,0007.59,0003.05
2023-09-24 19:10:00,SystemResetWarning,0832.6,4.99,000.00,028.0,024.9,000.0,036.4,029.4,13.1,0000.0,0003.49,0007.71,0003.06
2023-09-24 19:11:00,SystemResetWarning,0832.7,5.00,000.00,028.0,025.3,000.0,036.4,029.4,13.2,0000.0,0003.48,0008.36,0003.05
2023-09-24 19:12:00,SystemResetWarning,0832.7,5.00,000.00,028.0,025.7,000.0,036.4,029.5,13.3,0000.0,0003.48,0008.74,0003.05
2023-09-24 19:13:00,SystemResetWarning,0832.7,5.00,000.00,028.0,026.0,000.0,036.4,029.6,13.7,0000.0,0003.49,0008.49,0003.05
2023-09-24 19:14:00,SystemResetWarning,0832.7,4.99,000.00,028.1,026.3,000.0,036.4,029.7,13.7,0000.0,0003.49,0008.31,0003.04
2023-09-24 19:15:00,SystemResetWarning,0832.6,5.00,000.00,028.1,026.6,000.0,036.4,029.7,13.5,0000.0,0003.49,0008.38,0003.03
2023-09-24 19:16:00,SystemResetWarning,0832.6,5.01,000.00,028.1,026.8,000.0,036.4,029.8,13.5,0000.0,0003.49,0009.08,0003.04
2023-09-24 19:17:00,SystemResetWarning,0832.6,5.00,000.00,028.2,027.0,000.0,036.5,029.9,13.3,0000.0,0003.48,0009.16,0003.04
2023-09-24 19:18:00,SystemResetWarning,0832.6,5.01,000.00,028.2,027.1,000.0,036.5,029.9,13.3,0000.0,0003.45,0009.19,0003.02
2023-09-24 19:19:00,SystemResetWarning,0832.5,5.00,000.00,028.3,027.3,000.0,036.5,030.0,13.3,0000.0,0003.42,0009.53,0003.03
2023-09-24 19:20:00,SystemResetWarning,0832.5,5.00,000.00,028.3,027.3,000.0,036.5,030.0,13.2,0000.0,0003.45,0009.61,0003.04
2023-09-24 19:21:00,SystemResetWarning,0832.5,4.98,000.00,028.3,026.0,000.0,036.5,029.8,13.2,0000.0,0003.49,0009.57,0003.04
2023-09-24 19:22:00,SystemResetWarning,0832.6,5.01,000.00,028.2,024.3,000.0,036.4,029.4,13.8,0000.0,0003.50,0008.95,0003.05
2023-09-24 19:23:00,SystemResetWarning,0832.5,5.01,000.00,028.1,024.2,000.0,036.4,029.4,14.1,0000.0,0003.49,0008.40,0003.05
2023-09-24 19:24:00,SystemResetWarning,0832.5,4.99,000.00,028.0,024.5,000.0,036.4,029.3,14.1,0000.0,0003.49,0008.35,0003.04
2023-09-24 19:25:00,SystemResetWarning,0832.5,4.99,000.00,027.9,024.9,000.0,036.4,029.3,14.1,0000.0,0003.46,0008.30,0003.04
2023-09-24 19:26:00,SystemResetWarning,0832.5,5.01,000.00,027.9,025.3,000.0,036.4,029.4,13.9,0000.0,0003.46,0008.65,0003.03
2023-09-24 19:27:00,SystemResetWarning,0832.5,5.00,000.00,027.9,025.7,000.0,036.4,029.4,13.9,0000.0,0003.45,0008.19,0003.03
2023-09-24 19:28:00,SystemResetWarning,0832.5,5.00,000.00,027.9,026.0,000.0,036.4,029.5,13.7,0000.0,0003.44,0008.57,0003.01
2023-09-24 19:29:00,SystemResetWarning,0832.5,5.00,000.00,028.0,026.3,000.0,036.4,029.6,13.6,0000.0,0003.44,0008.84,0003.01
2023-09-24 19:30:00,SystemResetWarning,0832.5,5.01,000.00,028.0,026.5,000.0,036.4,029.7,13.6,0000.0,0003.46,0008.25,0003.03
2023-09-24 19:31:00,SystemResetWarning,0832.5,5.00,000.00,028.1,026.7,000.0,036.4,029.7,14.1,0000.0,0003.48,0008.28,0003.02
2023-09-24 19:32:00,SystemResetWarning,0832.5,5.00,000.00,028.1,026.9,000.0,036.4,029.8,14.2,0000.0,0003.43,0008.17,0003.04
2023-09-24 19:33:00,SystemResetWarning,0832.5,5.00,000.00,028.2,027.1,000.0,036.4,029.9,13.8,0000.0,0003.40,0008.05,0003.02
2023-09-24 19:34:00,SystemResetWarning,0832.5,5.00,000.00,028.2,027.2,000.0,036.5,030.0,13.6,0000.0,0003.39,0008.06,0003.02
2023-09-24 19:35:00,SystemResetWarning,0832.5,5.01,000.00,028.3,027.4,000.0,036.5,030.0,13.6,0000.0,0003.36,0008.22,0003.02
2023-09-24 19:36:00,SystemResetWarning,0832.5,4.99,000.00,028.3,026.7,000.0,036.5,030.0,13.7,0000.0,0003.35,0008.22,0003.02
2023-09-24 19:37:00,SystemResetWarning,0832.5,5.00,000.00,028.2,024.8,000.0,036.4,029.6,13.8,0000.0,0003.37,0008.12,0003.03
2023-09-24 19:38:00,SystemResetWarning,0832.5,5.01,000.00,028.1,024.1,000.0,036.3,029.4,14.0,0000.0,0003.38,0008.01,0003.03
2023-09-24 19:39:00,SystemResetWarning,0832.5,5.01,000.00,028.0,024.3,000.0,036.3,029.3,13.8,0000.0,0003.38,0007.96,0003.04
2023-09-24 19:40:00,SystemResetWarning,0832.5,4.99,000.00,027.9,024.6,000.0,036.3,029.3,13.8,0000.0,0003.38,0007.27,0003.04
2023-09-24 19:41:00,SystemResetWarning,0832.5,5.00,000.00,027.9,025.0,000.0,036.3,029.3,14.1,0000.0,0003.39,0007.07,0003.04
2023-09-24 19:42:00,SystemResetWarning,0832.5,5.01,000.00,027.9,025.4,000.0,036.3,029.4,13.9,0000.0,0003.38,0007.69,0003.04
2023-09-24 19:43:00,SystemResetWarning,0832.5,5.00,000.00,027.9,025.8,000.0,036.3,029.5,13.7,0000.0,0003.40,0007.89,0003.03
2023-09-24 19:44:00,SystemResetWarning,0832.5,4.99,000.00,027.9,026.1,000.0,036.3,029.6,13.8,0000.0,0003.43,0008.83,0003.05
2023-09-24 19:45:00,SystemResetWarning,0832.5,5.00,000.00,028.0,026.4,000.0,036.3,029.6,13.6,0000.0,0003.44,0010.39,0003.08
2023-09-24 19:46:00,SystemResetWarning,0832.5,5.00,000.00,028.0,026.6,000.0,036.3,029.7,13.7,0000.0,0003.49,0010.36,0003.09
2023-09-24 19:47:00,SystemResetWarning,0832.5,5.00,000.00,028.1,026.8,000.0,036.4,029.8,13.7,0000.0,0003.52,0010.56,0003.09
2023-09-24 19:48:00,SystemResetWarning,0832.5,5.00,000.00,028.1,027.0,000.0,036.4,029.9,13.7,0000.0,0003.53,0010.70,0003.10
2023-09-24 19:49:00,SystemResetWarning,0832.5,5.00,000.00,028.2,027.2,000.0,036.4,029.9,13.7,0000.0,0003.52,0010.85,0003.10
2023-09-24 19:50:00,SystemResetWarning,0832.5,5.00,000.00,028.2,027.3,000.0,036.4,030.0,13.8,0000.0,0003.56,0011.07,0003.10
2023-09-24 19:51:00,SystemResetWarning,0832.5,5.00,000.00,028.3,027.3,000.0,036.5,030.0,13.6,0000.0,0003.59,0011.32,0003.10
2023-09-24 19:52:00,SystemResetWarning,0832.4,4.98,000.00,028.3,025.8,000.0,036.4,029.7,13.3,0000.0,0003.62,0011.49,0003.11
2023-09-24 19:53:00,SystemResetWarning,0832.4,5.02,000.00,028.1,024.2,000.0,036.3,029.4,13.4,0000.0,0003.63,0011.21,0003.12
2023-09-24 19:54:00,SystemResetWarning,0832.4,5.01,000.00,028.0,024.2,000.0,036.3,029.3,13.8,0000.0,0003.64,0010.95,0003.13
2023-09-24 19:55:00,SystemResetWarning,0832.4,4.99,000.00,027.9,024.5,000.0,036.3,029.2,13.8,0000.0,0003.60,0010.14,0003.13
2023-09-24 19:56:00,SystemResetWarning,0832.4,5.00,000.00,027.9,024.9,000.0,036.3,029.3,14.0,0000.0,0003.63,0009.00,0003.13
2023-09-24 19:57:00,SystemResetWarning,0832.4,5.00,000.00,027.9,025.3,000.0,036.3,029.4,13.9,0000.0,0003.62,0009.32,0003.13
2023-09-24 19:58:00,SystemResetWarning,0832.5,5.01,000.00,027.9,025.7,000.0,036.3,029.5,13.8,0000.0,0003.63,0009.25,0003.14
2023-09-24 19:59:00,SystemResetWarning,0832.5,4.99,000.00,027.9,026.0,000.0,036.3,029.5,13.9,0000.0,0003.61,0009.04,0003.14
